Atqasuk Edward Burnell Sr Mem, AK

12:57 AM AKST on December 13, 2019 (GMT -0900)
Atqasuk Edward Burnell Sr Mem

Weather History for PATQ - November, 2019

Change the Weather History Date:

Tuesday, November 19, 2019

  Actual Average (WUND) Record (WUND)
Temperature  
Mean Temperature 2 °F -  
Max Temperature 9 °F - - (-1)
Min Temperature -4 °F - - (-1)
Degree Days  
Heating Degree Days 62    
Moisture  
Dew Point -0 °F    
Average Humidity 84    
Maximum Humidity 92    
Minimum Humidity 73    
Precipitation  
Precipitation 0.00 in - - ()
Sea Level Pressure  
Sea Level Pressure 29.86 in    
Wind  
Wind Speed 10 mph ()    
Max Wind Speed 16 mph    
Max Gust Speed -    
Visibility 6.6 miles    
Events Fog , Snow    
Averages and records for this station are not official NWS values.
T = Trace of Precipitation, MM = Missing Value Source: Averaged Metar Reports

Daily Weather History Graph

Daily Weather History Graph

Search for Another Location

Airport or City:

Astronomy

Nov. 19, 2019 Rise Set
Actual Time 12:05 PM AKST 2:23 PM AKST
Civil Twilight 10:02 AM AKST 4:26 PM AKST
Nautical Twilight 8:34 AM AKST 5:54 PM AKST
Astronomical Twilight 7:19 AM AKST 7:09 PM AKST
Moon 11:02 PM AKST (11/19) 5:06 PM AKST (11/19)
Length of Visible Light 6h 23m
Length of Day
2h 18m
Waning Gibbous, 50% of the Moon is Illuminated
Nov 19
Waning Gibbous
Nov 19
Last Quarter
Nov 26
New
Dec 3
First Quarter
Dec 11
Full

Hourly Weather History & Observations

Time (AKST) Temp. Windchill Dew Point Humidity Pressure Visibility Wind Dir Wind Speed Gust Speed Precip Events Conditions
12:56 AM 1.9 °F -14.7 °F -2.0 °F 83% 30.08 in 10.0 mi WSW 11.5 mph - N/A   Overcast
2:56 AM 5.0 °F -11.6 °F -0.0 °F 80% 30.07 in 10.0 mi SW 12.7 mph - N/A   Overcast
3:41 AM 6.8 °F -10.7 °F 1.4 °F 79% 30.04 in 10.0 mi WSW 15.0 mph - N/A   Overcast
3:56 AM 6.1 °F -10.9 °F 1.0 °F 80% 30.06 in 10.0 mi WSW 13.8 mph - N/A   Overcast
4:26 AM 8.6 °F -8.9 °F 1.4 °F 73% 30.03 in 10.0 mi WSW 16.1 mph - N/A   Overcast
4:56 AM 8.1 °F -9.6 °F 3.0 °F 80% 30.04 in 9.0 mi WSW 16.1 mph - 0.00 in Snow Light Snow
5:56 AM 9.0 °F -8.5 °F 3.9 °F 80% 30.04 in 9.0 mi WSW 16.1 mph - 0.00 in Snow Light Snow
6:10 AM 8.6 °F -7.7 °F 3.2 °F 79% 30.01 in 10.0 mi SW 13.8 mph - 0.00 in   Overcast
6:56 AM 8.1 °F -8.4 °F 3.0 °F 80% 30.02 in 10.0 mi SW 13.8 mph - 0.00 in Snow Light Snow
7:39 AM 6.8 °F -10.0 °F 1.4 °F 79% 29.98 in 10.0 mi SW 13.8 mph - 0.00 in   Overcast
7:53 AM 6.8 °F -10.7 °F 1.4 °F 79% 29.98 in 10.0 mi SW 15.0 mph - 0.00 in   Overcast
7:56 AM 6.1 °F -10.9 °F 1.9 °F 83% 30.01 in 10.0 mi SW 13.8 mph - 0.00 in   Overcast
8:56 AM 5.0 °F -13.0 °F 1.0 °F 84% 30.00 in 10.0 mi SW 15.0 mph - N/A   Overcast
9:56 AM 6.1 °F -9.5 °F 1.0 °F 80% 29.99 in 6.0 mi WSW 11.5 mph - 0.00 in Snow Light Snow
10:16 AM 5.0 °F -9.1 °F -0.4 °F 78% 29.96 in 9.0 mi WSW 9.2 mph - 0.00 in Snow Light Snow
10:28 AM 5.0 °F -10.0 °F -0.4 °F 78% 29.95 in 9.0 mi WSW 10.4 mph - 0.00 in Snow Light Snow
10:56 AM 3.0 °F -11.5 °F -0.9 °F 84% 29.97 in 10.0 mi SW 9.2 mph - 0.00 in   Overcast
11:56 AM 1.0 °F -15.8 °F -2.9 °F 83% 29.94 in 10.0 mi WSW 11.5 mph - N/A   Mostly Cloudy
12:56 PM -0.9 °F -19.1 °F -5.1 °F 83% 29.93 in 10.0 mi WSW 12.7 mph - N/A   Clear
2:27 PM -2.2 °F -19.9 °F -5.8 °F 85% 29.87 in 10.0 mi West 11.5 mph - N/A   Scattered Clouds
2:56 PM -2.0 °F -19.6 °F -6.0 °F 83% 29.88 in 10.0 mi West 11.5 mph - N/A   Clear
4:56 PM -4.0 °F -19.0 °F -8.0 °F 83% 29.81 in 10.0 mi West 8.1 mph - N/A   Partly Cloudy
6:53 PM -2.2 °F -16.8 °F -7.6 °F 78% 29.75 in 10.0 mi WNW 8.1 mph - N/A   Scattered Clouds
7:56 PM 1.0 °F -6.7 °F -0.9 °F 91% 29.75 in 10.0 mi North 3.5 mph - N/A   Overcast
8:25 PM 6.8 °F -2.0 °F 3.2 °F 85% 29.72 in 6.0 mi North 4.6 mph - N/A   Overcast
8:33 PM 5.0 °F -4.1 °F 1.4 °F 85% 29.72 in 1.8 mi NNW 4.6 mph - 0.00 in Snow Light Snow
8:56 PM 3.9 °F -3.4 °F 1.9 °F 91% 29.74 in 1.5 mi North 3.5 mph - 0.00 in Snow Light Snow
9:04 PM 3.2 °F -7.8 °F 1.4 °F 92% 29.71 in 0.8 mi North 5.8 mph - 0.00 in   Overcast
9:23 PM 5.0 °F -4.1 °F 3.2 °F 92% 29.71 in 1.2 mi North 4.6 mph - 0.00 in   Overcast
9:30 PM 5.0 °F -2.1 °F 3.2 °F 92% 29.70 in 2.0 mi ENE 3.5 mph - 0.00 in Snow Light Snow
9:56 PM 5.0 °F -8.1 °F 1.9 °F 87% 29.72 in 1.0 mi NE 8.1 mph - 0.00 in   Overcast
10:16 PM 3.2 °F -11.3 °F 1.4 °F 92% 29.69 in 1.0 mi NE 9.2 mph - 0.00 in Snow Light Snow
10:19 PM 3.2 °F -12.2 °F 1.4 °F 92% 29.69 in 1.2 mi NE 10.4 mph - 0.00 in Snow Light Snow
10:27 PM 3.2 °F -11.3 °F 1.4 °F 92% 29.68 in 2.0 mi ENE 9.2 mph - 0.00 in Snow Light Snow
10:38 PM 3.2 °F -11.3 °F 1.4 °F 92% 29.68 in 1.5 mi NE 9.2 mph - 0.00 in Snow Light Snow
10:51 PM 3.2 °F -10.3 °F -0.4 °F 85% 29.68 in 0.8 mi ENE 8.1 mph - 0.00 in Snow Light Snow
10:56 PM 3.0 °F -11.5 °F -0.0 °F 87% 29.70 in 0.5 mi ENE 9.2 mph - 0.00 in Fog , Snow Light Snow
11:25 PM 1.4 °F -13.5 °F -2.2 °F 85% 29.67 in 1.0 mi ENE 9.2 mph - 0.00 in Snow Light Snow
11:29 PM 1.4 °F -13.5 °F -2.2 °F 85% 29.68 in 2.0 mi ENE 9.2 mph - 0.00 in Snow Light Snow
11:37 PM 1.4 °F -14.5 °F -2.2 °F 85% 29.67 in 7.0 mi ENE 10.4 mph - 0.00 in Snow Light Snow